Change the Weather History Date:

Monday, January 13, 2014

  Actual Average Record
Temperature  
Mean Temperature 58 °F -  
Max Temperature 66 °F 65 °F - ()
Min Temperature 51 °F 48 °F - ()
Degree Days  
Heating Degree Days 6    
Growing Degree Days 8 (Base 50)    
Moisture  
Dew Point 50 °F    
Average Humidity 72    
Maximum Humidity 94    
Minimum Humidity 49    
Precipitation  
Precipitation 0.00 in 0.01 in - ()
Sea Level Pressure  
Sea Level Pressure 30.15 in    
Wind  
Wind Speed 5 mph ()    
Max Wind Speed 9 mph    
Max Gust Speed -    
Visibility 4.1 miles    
Events      
T = Trace of Precipitation, MM = Missing Value Source: Averaged Metar Reports

Daily Weather History Graph

Daily Weather History Graph

Search for Another Location

Airport or City:

Trip Planner

Search our weather history database for the weather conditions in past years. The results will help you decide how hot, cold, wet, or windy it might be!

Date:

Astronomy

Jan. 13, 2014 Rise Set
Actual Time 6:51 AM EET 5:14 PM EET
Civil Twilight 6:25 AM EET 5:40 PM EET
Nautical Twilight 5:56 AM EET 6:10 PM EET
Astronomical Twilight 5:27 AM EET 6:39 PM EET
Moon 3:12 PM EET (1/13) 4:25 AM EET (1/13)
Length of Visible Light 11h 15m
Length of Day
10h 23m
Waxing Gibbous, 93% of the Moon is Illuminated
Jan 13
Waxing Gibbous
Jan 16
Full
Jan 24
Last Quarter
Jan 30
New
Feb 6
First Quarter

Hourly Weather History & Observations

Time (EET) Temp. Dew Point Humidity Pressure Visibility Wind Dir Wind Speed Gust Speed Precip Events Conditions
12:00 AM 57.2 °F 48.2 °F 72% 30.21 in 3.7 mi Calm Calm - N/A   Unknown
12:30 AM 57.2 °F 48.2 °F 72% 30.21 in 3.7 mi Calm Calm - N/A   Unknown
1:00 AM 55.4 °F 48.2 °F 77% 30.21 in 3.7 mi East 4.6 mph - N/A   Unknown
1:30 AM 55.4 °F 48.2 °F 77% 30.21 in 3.7 mi Calm Calm - N/A   Unknown
2:00 AM 53.6 °F 48.2 °F 82% 30.21 in 2.5 mi Calm Calm - N/A   Mist
2:30 AM 53.6 °F 48.2 °F 82% 30.21 in 2.5 mi Calm Calm - N/A   Mist
3:00 AM 53.6 °F 50.0 °F 88% 30.18 in 2.5 mi East 4.6 mph - N/A   Mist
3:30 AM 53.6 °F 50.0 °F 88% 30.18 in 2.5 mi East 4.6 mph - N/A   Mist
4:00 AM 53.6 °F 50.0 °F 88% 30.18 in 2.5 mi East 5.8 mph - N/A   Mist
4:30 AM 53.6 °F 50.0 °F 88% 30.18 in 2.5 mi East 5.8 mph - N/A   Mist
5:00 AM 53.6 °F 50.0 °F 88% 30.18 in 2.5 mi East 5.8 mph - N/A   Mist
5:30 AM 53.6 °F 50.0 °F 88% 30.18 in 2.5 mi East 5.8 mph - N/A   Mist
6:00 AM 53.6 °F 50.0 °F 88% 30.21 in 2.5 mi East 6.9 mph - N/A   Mist
6:30 AM 51.8 °F 48.2 °F 88% 30.21 in 2.5 mi East 5.8 mph - N/A   Mist
7:00 AM 51.8 °F 50.0 °F 94% 30.21 in 2.5 mi East 6.9 mph - N/A   Mist
7:30 AM 53.6 °F 51.8 °F 94% 30.21 in 2.5 mi East 5.8 mph - N/A   Mist
8:00 AM 55.4 °F 51.8 °F 88% 30.21 in 2.5 mi East 4.6 mph - N/A   Mist
8:30 AM 57.2 °F 53.6 °F 88% 30.21 in 2.5 mi East 5.8 mph - N/A   Mist
9:00 AM 60.8 °F 53.6 °F 77% 30.24 in 3.7 mi ENE 6.9 mph - N/A   Unknown
9:30 AM 60.8 °F 53.6 °F 77% 30.24 in 3.7 mi ENE 6.9 mph - N/A   Unknown
10:00 AM 60.8 °F 53.6 °F 77% 30.21 in 3.7 mi NE 8.1 mph - N/A   Unknown
10:30 AM 60.8 °F 53.6 °F 77% 30.21 in 3.7 mi NE 5.8 mph - N/A   Unknown
11:00 AM 62.6 °F 53.6 °F 72% 30.18 in 6.2 mi NE 6.9 mph - N/A   Partly Cloudy
11:30 AM 62.6 °F 53.6 °F 72% 30.18 in 6.2 mi NE 4.6 mph - N/A   Partly Cloudy
12:00 PM 64.4 °F 53.6 °F 68% 30.15 in 6.2 mi NNE 5.8 mph - N/A   Scattered Clouds
12:30 PM 64.4 °F 51.8 °F 64% 30.15 in 6.2 mi NE 6.9 mph - N/A   Scattered Clouds
1:00 PM 64.4 °F 50.0 °F 59% 30.12 in 6.2 mi NE 8.1 mph - N/A   Scattered Clouds
1:30 PM 66.2 °F 50.0 °F 56% 30.09 in 6.2 mi ENE 9.2 mph - N/A   Scattered Clouds
2:00 PM 66.2 °F 48.2 °F 52% 30.09 in 6.2 mi ENE 8.1 mph - N/A   Scattered Clouds
2:30 PM 66.2 °F 48.2 °F 52% 30.09 in 6.2 mi ENE 8.1 mph - N/A   Mostly Cloudy
3:00 PM 66.2 °F 48.2 °F 52% 30.09 in 6.2 mi NE 6.9 mph - N/A   Scattered Clouds
3:30 PM 66.2 °F 46.4 °F 49% 30.09 in 6.2 mi ENE 9.2 mph - N/A   Scattered Clouds
4:00 PM 66.2 °F 46.4 °F 49% 30.09 in - NE 8.1 mph - N/A   Clear
4:30 PM 66.2 °F 46.4 °F 49% 30.09 in - NE 8.1 mph - N/A   Clear
5:00 PM 66.2 °F 46.4 °F 49% 30.09 in - NNE 8.1 mph - N/A   Clear
5:30 PM 66.2 °F 46.4 °F 49% 30.09 in - NE 8.1 mph - N/A   Clear
6:00 PM 64.4 °F 44.6 °F 49% 30.09 in 6.2 mi ENE 9.2 mph - N/A   Mostly Cloudy
6:30 PM 64.4 °F 46.4 °F 52% 30.09 in 6.2 mi ENE 9.2 mph - N/A   Mostly Cloudy
7:00 PM 64.4 °F 46.4 °F 52% 30.09 in - NNE 6.9 mph - N/A   Clear
7:30 PM 64.4 °F 48.2 °F 56% 30.09 in - NNE 6.9 mph - N/A   Clear
8:00 PM 63 °F 51 °F 56% 30.10 in 6 mi NNE 9.2 mph - -   Mostly Cloudy
8:00 PM 62.6 °F 51.8 °F 68% 30.09 in - NNE 9.2 mph - N/A   Clear
8:30 PM 60.8 °F 51.8 °F 72% 30.09 in - NNE 6.9 mph - N/A   Clear
9:00 PM 60.8 °F 53.6 °F 77% 30.09 in - NE 6.9 mph - N/A   Clear
9:30 PM 60.8 °F 53.6 °F 77% 30.09 in - NE 6.9 mph - N/A   Clear
10:00 PM 60.8 °F 53.6 °F 77% 30.09 in - NE 6.9 mph - N/A   Clear
10:30 PM 60.8 °F 53.6 °F 77% 30.09 in - NE 6.9 mph - N/A   Clear
11:00 PM 59.0 °F 53.6 °F 82% 30.12 in - NE 8.1 mph - N/A   Clear
11:30 PM 59.0 °F 53.6 °F 82% 30.06 in - ENE 9.2 mph - N/A   Clear